DL1MMS-10 Weather Reports


Display with metric or nautical units.
time (UTC)temp
F
wind
direction
speed
MPH
gust
MPH
rain 1hr
in
rain 24hr
in
rain mn
in
humidity
%
barometer
mb
20260510141449 81 0 0.0 0.0 0.00 0.00 0.00 33 1009.1
20260510140948 82 0 0.0 0.0 0.00 0.00 0.00 33 1009.2
20260510140448 82 0 0.0 0.0 0.00 0.00 0.00 32 1009.1
20260510135948 82 0 0.0 0.0 0.00 0.00 0.00 32 1009.4
20260510135448 83 0 0.0 0.0 0.00 0.00 0.00 31 1009.4
20260510134947 84 0 0.0 0.0 0.00 0.00 0.00 30 1009.4
20260510134447 86 0 0.0 0.0 0.00 0.00 0.00 29 1009.2
20260510133947 87 0 0.0 0.0 0.00 0.00 0.00 28 1009.2
20260510133446 88 0 0.0 0.0 0.00 0.00 0.00 28 1009.4
20260510132946 89 0 0.0 0.0 0.00 0.00 0.00 29 1009.5
20260510132446 89 0 0.0 0.0 0.00 0.00 0.00 28 1009.7
20260510131946 90 0 0.0 0.0 0.00 0.00 0.00 28 1009.5
20260510131445 90 0 0.0 0.0 0.00 0.00 0.00 29 1009.7
20260510130945 89 0 0.0 0.0 0.00 0.00 0.00 29 1009.8
20260510130445 87 0 0.0 0.0 0.00 0.00 0.00 31 1009.9
20260510125944 85 0 0.0 0.0 0.00 0.00 0.00 33 1009.7
20260510125444 82 0 0.0 0.0 0.00 0.00 0.00 35 1009.7
20260510124944 80 0 0.0 0.0 0.00 0.00 0.00 36 1009.9
20260510124444 78 0 0.0 0.0 0.00 0.00 0.00 36 1009.9
20260510123943 78 0 0.0 0.0 0.00 0.00 0.00 36 1010.0
20260510123443 78 0 0.0 0.0 0.00 0.00 0.00 37 1010.1
20260510122943 77 0 0.0 0.0 0.00 0.00 0.00 37 1010.0
20260510122442 76 0 0.0 0.0 0.00 0.00 0.00 38 1010.0
20260510121942 76 0 0.0 0.0 0.00 0.00 0.00 38 1010.1
20260510121442 76 0 0.0 0.0 0.00 0.00 0.00 38 1010.1
20260510120942 77 0 0.0 0.0 0.00 0.00 0.00 37 1010.2
20260510120441 77 0 0.0 0.0 0.00 0.00 0.00 36 1010.2
20260510115941 78 0 0.0 0.0 0.00 0.00 0.00 36 1010.2
20260510115441 79 0 0.0 0.0 0.00 0.00 0.00 35 1010.1
20260510114941 80 0 0.0 0.0 0.00 0.00 0.00 34 1010.2
20260510114440 82 0 0.0 0.0 0.00 0.00 0.00 33 1010.3
20260510113940 83 0 0.0 0.0 0.00 0.00 0.00 33 1010.4
20260510113440 84 0 0.0 0.0 0.00 0.00 0.00 32 1010.4
20260510112939 84 0 0.0 0.0 0.00 0.00 0.00 31 1010.6
20260510112439 86 0 0.0 0.0 0.00 0.00 0.00 30 1010.4
20260510111939 87 0 0.0 0.0 0.00 0.00 0.00 32 1010.5
20260510111439 86 0 0.0 0.0 0.00 0.00 0.00 33 1010.5
20260510110938 84 0 0.0 0.0 0.00 0.00 0.00 34 1010.5
20260510110438 84 0 0.0 0.0 0.00 0.00 0.00 33 1010.7
20260510105938 84 0 0.0 0.0 0.00 0.00 0.00 34 1010.7
20260510105437 85 0 0.0 0.0 0.00 0.00 0.00 32 1010.8
20260510104937 86 0 0.0 0.0 0.00 0.00 0.00 32 1010.8
20260510104437 86 0 0.0 0.0 0.00 0.00 0.00 32 1010.9
20260510103937 88 0 0.0 0.0 0.00 0.00 0.00 32 1010.8
20260510103436 88 0 0.0 0.0 0.00 0.00 0.00 32 1011.0
20260510102936 89 0 0.0 0.0 0.00 0.00 0.00 34 1011.1
20260510102436 86 0 0.0 0.0 0.00 0.00 0.00 36 1011.0
20260510101935 84 0 0.0 0.0 0.00 0.00 0.00 40 1010.9
20260510101435 79 0 0.0 0.0 0.00 0.00 0.00 41 1011.0
20260510100935 75 0 0.0 0.0 0.00 0.00 0.00 44 1011.1
20260510100434 75 0 0.0 0.0 0.00 0.00 0.00 45 1011.2
20260510095934 75 0 0.0 0.0 0.00 0.00 0.00 47 1011.3
20260510095434 74 0 0.0 0.0 0.00 0.00 0.00 47 1011.4
20260510094934 73 0 0.0 0.0 0.00 0.00 0.00 49 1011.1
20260510094433 72 0 0.0 0.0 0.00 0.00 0.00 50 1011.2
20260510093933 71 0 0.0 0.0 0.00 0.00 0.00 51 1011.3
20260510093433 71 0 0.0 0.0 0.00 0.00 0.00 51 1011.4
20260510092933 71 0 0.0 0.0 0.00 0.00 0.00 51 1011.3
20260510092432 70 0 0.0 0.0 0.00 0.00 0.00 50 1011.3
20260510091932 70 0 0.0 0.0 0.00 0.00 0.00 50 1011.2
20260510091432 70 0 0.0 0.0 0.00 0.00 0.00 51 1011.4
20260510090931 70 0 0.0 0.0 0.00 0.00 0.00 51 1011.5
20260510090431 70 0 0.0 0.0 0.00 0.00 0.00 52 1011.6
20260510085931 70 0 0.0 0.0 0.00 0.00 0.00 52 1011.6
20260510085431 69 0 0.0 0.0 0.00 0.00 0.00 53 1011.4
20260510084930 69 0 0.0 0.0 0.00 0.00 0.00 53 1011.5
20260510084430 69 0 0.0 0.0 0.00 0.00 0.00 54 1011.5
20260510083930 68 0 0.0 0.0 0.00 0.00 0.00 55 1011.5
20260510083429 67 0 0.0 0.0 0.00 0.00 0.00 57 1011.5
20260510082929 66 0 0.0 0.0 0.00 0.00 0.00 58 1011.6
20260510082429 66 0 0.0 0.0 0.00 0.00 0.00 59 1011.5
20260510081929 65 0 0.0 0.0 0.00 0.00 0.00 59 1011.7
20260510081428 64 0 0.0 0.0 0.00 0.00 0.00 60 1011.5
20260510080928 64 0 0.0 0.0 0.00 0.00 0.00 61 1011.7
20260510080428 63 0 0.0 0.0 0.00 0.00 0.00 63 1011.7
20260510075928 63 0 0.0 0.0 0.00 0.00 0.00 64 1011.7
20260510075427 62 0 0.0 0.0 0.00 0.00 0.00 64 1011.7
20260510074927 61 0 0.0 0.0 0.00 0.00 0.00 65 1011.8
20260510074427 61 0 0.0 0.0 0.00 0.00 0.00 66 1011.8
20260510073926 60 0 0.0 0.0 0.00 0.00 0.00 69 1011.9
20260510073426 59 0 0.0 0.0 0.00 0.00 0.00 70 1011.9
20260510072926 58 0 0.0 0.0 0.00 0.00 0.00 72 1011.9
20260510072426 58 0 0.0 0.0 0.00 0.00 0.00 73 1011.9
20260510071925 57 0 0.0 0.0 0.00 0.00 0.00 74 1012.0
20260510071425 56 0 0.0 0.0 0.00 0.00 0.00 75 1012.0
20260510070925 56 0 0.0 0.0 0.00 0.00 0.00 76 1012.1
20260510070424 55 0 0.0 0.0 0.00 0.00 0.00 76 1012.1
20260510065924 55 0 0.0 0.0 0.00 0.00 0.00 77 1012.1
20260510065424 54 0 0.0 0.0 0.00 0.00 0.00 77 1012.1
20260510064924 53 0 0.0 0.0 0.00 0.00 0.00 78 1012.2
20260510064423 53 0 0.0 0.0 0.00 0.00 0.00 78 1012.2
20260510063923 52 0 0.0 0.0 0.00 0.00 0.00 78 1012.2
20260510063423 52 0 0.0 0.0 0.00 0.00 0.00 78 1012.3
20260510062922 51 0 0.0 0.0 0.00 0.00 0.00 78 1012.4
20260510062422 51 0 0.0 0.0 0.00 0.00 0.00 79 1012.4
20260510061922 51 0 0.0 0.0 0.00 0.00 0.00 79 1012.4
20260510061422 51 0 0.0 0.0 0.00 0.00 0.00 79 1012.5
20260510060921 51 0 0.0 0.0 0.00 0.00 0.00 79 1012.5
20260510060421 50 0 0.0 0.0 0.00 0.00 0.00 80 1012.6
20260510055921 50 0 0.0 0.0 0.00 0.00 0.00 80 1012.5
20260510055420 49 0 0.0 0.0 0.00 0.00 0.00 80 1012.5
20260510054920 49 0 0.0 0.0 0.00 0.00 0.00 80 1012.6
20260510054420 49 0 0.0 0.0 0.00 0.00 0.00 81 1012.7
20260510053920 49 0 0.0 0.0 0.00 0.00 0.00 81 1012.7
20260510053419 48 0 0.0 0.0 0.00 0.00 0.00 82 1012.7
20260510052919 48 0 0.0 0.0 0.00 0.00 0.00 82 1012.7
20260510052419 47 0 0.0 0.0 0.00 0.00 0.00 83 1012.7
20260510051918 47 0 0.0 0.0 0.00 0.00 0.00 83 1012.7
20260510051418 46 0 0.0 0.0 0.00 0.00 0.00 83 1012.7
20260510050918 45 0 0.0 0.0 0.00 0.00 0.00 83 1012.7
20260510050418 44 0 0.0 0.0 0.00 0.00 0.00 84 1012.9
20260510045917 44 0 0.0 0.0 0.00 0.00 0.00 84 1012.9
20260510045417 43 0 0.0 0.0 0.00 0.00 0.00 84 1012.8
20260510044917 42 0 0.0 0.0 0.00 0.00 0.00 83 1013.0
20260510044417 42 0 0.0 0.0 0.00 0.00 0.00 84 1013.0
20260510043916 42 0 0.0 0.0 0.00 0.00 0.00 83 1012.9
20260510043416 42 0 0.0 0.0 0.00 0.00 0.00 83 1013.0
20260510042916 42 0 0.0 0.0 0.00 0.00 0.00 83 1013.0
20260510042415 42 0 0.0 0.0 0.00 0.00 0.00 84 1013.0
20260510041915 42 0 0.0 0.0 0.00 0.00 0.00 84 1013.0
20260510041415 41 0 0.0 0.0 0.00 0.00 0.00 83 1013.0
20260510040914 41 0 0.0 0.0 0.00 0.00 0.00 83 1013.2
20260510040414 41 0 0.0 0.0 0.00 0.00 0.00 83 1013.1
20260510035914 41 0 0.0 0.0 0.00 0.00 0.00 83 1013.2
20260510035414 41 0 0.0 0.0 0.00 0.00 0.00 82 1013.3
20260510034913 41 0 0.0 0.0 0.00 0.00 0.00 82 1013.4
20260510034413 42 0 0.0 0.0 0.00 0.00 0.00 82 1013.4
20260510033913 42 0 0.0 0.0 0.00 0.00 0.00 82 1013.4
20260510033412 42 0 0.0 0.0 0.00 0.00 0.00 81 1013.3
20260510032912 42 0 0.0 0.0 0.00 0.00 0.00 81 1013.4
20260510032412 42 0 0.0 0.0 0.00 0.00 0.00 81 1013.4
20260510031912 42 0 0.0 0.0 0.00 0.00 0.00 81 1013.4
20260510031411 43 0 0.0 0.0 0.00 0.00 0.00 81 1013.5
20260510030911 43 0 0.0 0.0 0.00 0.00 0.00 81 1013.4
20260510030411 43 0 0.0 0.0 0.00 0.00 0.00 81 1013.4
20260510025910 43 0 0.0 0.0 0.00 0.00 0.00 80 1013.4
20260510025410 43 0 0.0 0.0 0.00 0.00 0.00 80 1013.5
20260510024910 43 0 0.0 0.0 0.00 0.00 0.00 80 1013.5
20260510024410 43 0 0.0 0.0 0.00 0.00 0.00 80 1013.6
20260510023909 43 0 0.0 0.0 0.00 0.00 0.00 80 1013.6
20260510023409 43 0 0.0 0.0 0.00 0.00 0.00 80 1013.6
20260510022909 43 0 0.0 0.0 0.00 0.00 0.00 80 1013.7
20260510022408 44 0 0.0 0.0 0.00 0.00 0.00 80 1013.7
20260510021908 44 0 0.0 0.0 0.00 0.00 0.00 80 1013.6
20260510021408 44 0 0.0 0.0 0.00 0.00 0.00 80 1013.6
20260510020908 44 0 0.0 0.0 0.00 0.00 0.00 80 1013.6
20260510020407 45 0 0.0 0.0 0.00 0.00 0.00 79 1013.7
20260510015907 45 0 0.0 0.0 0.00 0.00 0.00 79 1013.8
20260510015407 45 0 0.0 0.0 0.00 0.00 0.00 79 1013.8
20260510014907 45 0 0.0 0.0 0.00 0.00 0.00 79 1013.8
20260510014406 45 0 0.0 0.0 0.00 0.00 0.00 79 1013.8
20260510013906 45 0 0.0 0.0 0.00 0.00 0.00 79 1013.8
20260510013406 45 0 0.0 0.0 0.00 0.00 0.00 79 1013.8
20260510012905 45 0 0.0 0.0 0.00 0.00 0.00 79 1013.8
20260510012405 46 0 0.0 0.0 0.00 0.00 0.00 78 1013.8
20260510011905 46 0 0.0 0.0 0.00 0.00 0.00 78 1013.8
20260510011405 46 0 0.0 0.0 0.00 0.00 0.00 78 1013.9
20260510010904 46 0 0.0 0.0 0.00 0.00 0.00 78 1014.0
20260510010404 46 0 0.0 0.0 0.00 0.00 0.00 77 1014.0
20260510005904 46 0 0.0 0.0 0.00 0.00 0.00 77 1014.0
20260510005403 46 0 0.0 0.0 0.00 0.00 0.00 77 1014.0
20260510004903 46 0 0.0 0.0 0.00 0.00 0.00 76 1014.0
20260510004403 47 0 0.0 0.0 0.00 0.00 0.00 76 1014.0
20260510003903 47 0 0.0 0.0 0.00 0.00 0.00 75 1014.0
20260510003402 47 0 0.0 0.0 0.00 0.00 0.00 75 1014.0
20260510002902 48 0 0.0 0.0 0.00 0.00 0.00 74 1014.1
20260510002402 48 0 0.0 0.0 0.00 0.00 0.00 74 1014.1
20260510001901 48 0 0.0 0.0 0.00 0.00 0.00 73 1014.1
20260510001401 49 0 0.0 0.0 0.00 0.00 0.00 73 1014.1
20260510000901 49 0 0.0 0.0 0.00 0.00 0.00 73 1014.4
20260510000403 49 0 0.0 0.0 0.00 0.00 0.00 73 1014.4
20260509235900 50 0 0.0 0.0 0.00 0.00 0.00 72 1014.3
20260509235400 50 0 0.0 0.0 0.00 0.00 0.00 72 1014.5
20260509234900 50 0 0.0 0.0 0.00 0.00 0.00 72 1014.4
20260509234359 50 0 0.0 0.0 0.00 0.00 0.00 71 1014.5
20260509233859 50 0 0.0 0.0 0.00 0.00 0.00 71 1014.7
20260509233359 51 0 0.0 0.0 0.00 0.00 0.00 71 1014.7
20260509232859 51 0 0.0 0.0 0.00 0.00 0.00 71 1014.7
20260509232358 51 0 0.0 0.0 0.00 0.00 0.00 70 1014.8
20260509231858 51 0 0.0 0.0 0.00 0.00 0.00 70 1014.8
20260509231358 51 0 0.0 0.0 0.00 0.00 0.00 69 1014.9
20260509230857 52 0 0.0 0.0 0.00 0.00 0.00 69 1014.8
20260509230357 52 0 0.0 0.0 0.00 0.00 0.00 69 1014.8
20260509225857 52 0 0.0 0.0 0.00 0.00 0.00 68 1014.9
20260509225357 53 0 0.0 0.0 0.00 0.00 0.00 68 1015.0
20260509224856 53 0 0.0 0.0 0.00 0.00 0.00 67 1015.0
20260509224356 53 0 0.0 0.0 0.00 0.00 0.00 67 1015.0
20260509223856 53 0 0.0 0.0 0.00 0.00 0.00 66 1015.0
20260509223355 54 0 0.0 0.0 0.00 0.00 0.00 66 1015.0
20260509222855 54 0 0.0 0.0 0.00 0.00 0.00 66 1014.9
20260509222355 54 0 0.0 0.0 0.00 0.00 0.00 65 1014.9
20260509221855 55 0 0.0 0.0 0.00 0.00 0.00 65 1015.0
20260509221354 55 0 0.0 0.0 0.00 0.00 0.00 65 1014.9
20260509220854 55 0 0.0 0.0 0.00 0.00 0.00 65 1014.9
20260509220354 55 0 0.0 0.0 0.00 0.00 0.00 65 1014.9
20260509215853 55 0 0.0 0.0 0.00 0.00 0.00 64 1014.8
20260509215353 55 0 0.0 0.0 0.00 0.00 0.00 64 1014.8
20260509214853 56 0 0.0 0.0 0.00 0.00 0.00 63 1014.9
20260509214353 56 0 0.0 0.0 0.00 0.00 0.00 62 1015.0
20260509213852 57 0 0.0 0.0 0.00 0.00 0.00 62 1015.0
20260509213352 57 0 0.0 0.0 0.00 0.00 0.00 62 1014.9
20260509212852 57 0 0.0 0.0 0.00 0.00 0.00 62 1014.9
20260509212352 57 0 0.0 0.0 0.00 0.00 0.00 62 1014.9
20260509211851 58 0 0.0 0.0 0.00 0.00 0.00 62 1014.8
20260509211351 58 0 0.0 0.0 0.00 0.00 0.00 62 1014.9
20260509210851 58 0 0.0 0.0 0.00 0.00 0.00 62 1015.0
20260509210350 58 0 0.0 0.0 0.00 0.00 0.00 62 1014.9
20260509205850 58 0 0.0 0.0 0.00 0.00 0.00 61 1014.9
20260509205350 58 0 0.0 0.0 0.00 0.00 0.00 61 1015.1
20260509204850 58 0 0.0 0.0 0.00 0.00 0.00 61 1015.2
20260509204349 58 0 0.0 0.0 0.00 0.00 0.00 61 1015.3
20260509203849 58 0 0.0 0.0 0.00 0.00 0.00 61 1015.2
20260509203349 58 0 0.0 0.0 0.00 0.00 0.00 61 1015.2
20260509202848 58 0 0.0 0.0 0.00 0.00 0.00 62 1015.1
20260509202348 58 0 0.0 0.0 0.00 0.00 0.00 62 1015.2
20260509201848 57 0 0.0 0.0 0.00 0.00 0.00 62 1015.3
20260509201348 57 0 0.0 0.0 0.00 0.00 0.00 63 1015.3
20260509200847 56 0 0.0 0.0 0.00 0.00 0.00 61 1015.4
20260509200347 57 0 0.0 0.0 0.00 0.00 0.00 60 1015.3
20260509195847 57 0 0.0 0.0 0.00 0.00 0.00 59 1015.3
20260509195346 57 0 0.0 0.0 0.00 0.00 0.00 59 1015.2
20260509194846 58 0 0.0 0.0 0.00 0.00 0.00 58 1015.5
20260509194346 58 0 0.0 0.0 0.00 0.00 0.00 58 1015.5
20260509193846 58 0 0.0 0.0 0.00 0.00 0.00 57 1015.4
20260509193345 59 0 0.0 0.0 0.00 0.00 0.00 56 1015.4
20260509192845 59 0 0.0 0.0 0.00 0.00 0.00 55 1015.3
20260509192345 60 0 0.0 0.0 0.00 0.00 0.00 54 1015.3
20260509191844 60 0 0.0 0.0 0.00 0.00 0.00 54 1015.3
20260509191344 61 0 0.0 0.0 0.00 0.00 0.00 52 1015.2
20260509190844 62 0 0.0 0.0 0.00 0.00 0.00 51 1015.3
20260509190344 62 0 0.0 0.0 0.00 0.00 0.00 51 1015.1
20260509185843 63 0 0.0 0.0 0.00 0.00 0.00 51 1015.0
20260509185343 63 0 0.0 0.0 0.00 0.00 0.00 51 1015.2
20260509184843 64 0 0.0 0.0 0.00 0.00 0.00 50 1015.2
20260509184342 64 0 0.0 0.0 0.00 0.00 0.00 49 1015.1
20260509183842 64 0 0.0 0.0 0.00 0.00 0.00 48 1015.1
20260509183342 65 0 0.0 0.0 0.00 0.00 0.00 48 1015.2
20260509182842 66 0 0.0 0.0 0.00 0.00 0.00 47 1015.1
20260509182341 66 0 0.0 0.0 0.00 0.00 0.00 46 1015.0
20260509181841 66 0 0.0 0.0 0.00 0.00 0.00 46 1015.2
20260509181341 67 0 0.0 0.0 0.00 0.00 0.00 45 1015.1
20260509180840 67 0 0.0 0.0 0.00 0.00 0.00 45 1015.1
20260509180340 68 0 0.0 0.0 0.00 0.00 0.00 44 1015.1
20260509175840 68 0 0.0 0.0 0.00 0.00 0.00 43 1015.1
20260509175340 69 0 0.0 0.0 0.00 0.00 0.00 42 1015.0
20260509174839 69 0 0.0 0.0 0.00 0.00 0.00 41 1015.1
20260509174339 70 0 0.0 0.0 0.00 0.00 0.00 41 1015.1
20260509173839 70 0 0.0 0.0 0.00 0.00 0.00 40 1015.1
20260509173338 71 0 0.0 0.0 0.00 0.00 0.00 39 1015.2
20260509172838 72 0 0.0 0.0 0.00 0.00 0.00 38 1014.9
20260509172338 72 0 0.0 0.0 0.00 0.00 0.00 37 1014.9
20260509171838 73 0 0.0 0.0 0.00 0.00 0.00 35 1015.0
20260509171337 74 0 0.0 0.0 0.00 0.00 0.00 34 1015.0
20260509170837 76 0 0.0 0.0 0.00 0.00 0.00 33 1015.1
20260509170337 78 0 0.0 0.0 0.00 0.00 0.00 31 1015.1
20260509165836 81 0 0.0 0.0 0.00 0.00 0.00 29 1015.1
20260509165336 85 0 0.0 0.0 0.00 0.00 0.00 26 1015.2
20260509164836 90 0 0.0 0.0 0.00 0.00 0.00 26 1015.1
20260509164336 92 0 0.0 0.0 0.00 0.00 0.00 25 1015.0
20260509163835 92 0 0.0 0.0 0.00 0.00 0.00 25 1015.1
20260509163335 93 0 0.0 0.0 0.00 0.00 0.00 24 1015.2
20260509162835 94 0 0.0 0.0 0.00 0.00 0.00 24 1015.0
20260509162335 95 0 0.0 0.0 0.00 0.00 0.00 24 1015.0
20260509161834 95 0 0.0 0.0 0.00 0.00 0.00 24 1015.1
20260509161334 94 0 0.0 0.0 0.00 0.00 0.00 24 1015.3
20260509160834 95 0 0.0 0.0 0.00 0.00 0.00 24 1015.3
20260509160333 92 0 0.0 0.0 0.00 0.00 0.00 27 1015.3
20260509155833 89 0 0.0 0.0 0.00 0.00 0.00 28 1015.3
20260509155333 84 0 0.0 0.0 0.00 0.00 0.00 30 1015.4
20260509154833 84 0 0.0 0.0 0.00 0.00 0.00 28 1015.4
20260509154332 87 0 0.0 0.0 0.00 0.00 0.00 27 1015.3
20260509153832 90 0 0.0 0.0 0.00 0.00 0.00 26 1015.4
20260509153332 91 0 0.0 0.0 0.00 0.00 0.00 26 1015.5
20260509152831 88 0 0.0 0.0 0.00 0.00 0.00 28 1015.6
20260509152331 82 0 0.0 0.0 0.00 0.00 0.00 32 1015.6
20260509151831 79 0 0.0 0.0 0.00 0.00 0.00 32 1015.6
20260509151331 79 0 0.0 0.0 0.00 0.00 0.00 31 1015.7
20260509150830 82 0 0.0 0.0 0.00 0.00 0.00 30 1015.8
20260509150330 84 0 0.0 0.0 0.00 0.00 0.00 29 1015.7
20260509145830 86 0 0.0 0.0 0.00 0.00 0.00 29 1015.8
20260509145329 85 0 0.0 0.0 0.00 0.00 0.00 30 1015.8
20260509144829 83 0 0.0 0.0 0.00 0.00 0.00 32 1015.8
20260509144329 81 0 0.0 0.0 0.00 0.00 0.00 31 1015.9
20260509143829 83 0 0.0 0.0 0.00 0.00 0.00 29 1015.9
20260509143328 86 0 0.0 0.0 0.00 0.00 0.00 27 1016.0
20260509142828 90 0 0.0 0.0 0.00 0.00 0.00 25 1016.0
20260509142328 96 0 0.0 0.0 0.00 0.00 0.00 24 1015.9
20260509141827 97 0 0.0 0.0 0.00 0.00 0.00 24 1016.0